Regional Weather Roundup
Issued by NWS Boston, MA

Home | Current Version | Previous Version | Text Only | Print | Product List | Glossary On
Versions: 1 2 3 4 5 6 7 8 9 10 11 12 13 14 15 16 17 18 19 20 21 22 23 24 25 26 27 28 29 30 31 32 33 34 35 36 37 38 39 40 41 42 43 44 45 46 47 48 49 50
000
ASUS41 KBOX 280510
RWRBOX

REGIONAL WEATHER ROUNDUP
NATIONAL WEATHER SERVICE TAUNTON MA
100 AM EDT TUE JUL 28 2015

NOTE:  "FAIR" INDICATES FEW OR NO CLOUDS BELOW 12,000 FEET WITH NO
SIGNIFICANT WEATHER AND/OR OBSTRUCTIONS TO VISIBILITY.  THE FOLLOWING
OBSERVATION LOCATIONS DO NOT REPORT PRESENT WEATHER...PROVINCETOWN...
SMITHFIELD...BLOCK ISLAND...KEENE...AND OXFORD.

MAZALL-280600-
EASTERN MASSACHUSETTS

CITY           SKY/WX    TMP DP  RH WIND       PRES   REMARKS
BOSTON         CLEAR     72  68  87 SW8       29.99F
BEVERLY        PTCLDY    71  66  84 S3        29.98F
LAWRENCE       CLEAR     69  66  90 SW5       30.00F
BEDFORD        CLEAR     69  66  90 S3        29.98F
BLUE HILL        N/A     69  68  96 S13       30.01F
NORWOOD        CLEAR     69  67  93 S5        30.00F
MARSHFIELD     CLEAR     70  70 100 SW3       30.02F
PLYMOUTH       CLEAR     70  69  97 S6        30.02F
TAUNTON        CLEAR     70  68  93 S3        30.01F
NEW BEDFORD    CLEAR     68  67  96 SW5       30.02S
$$

MAZALL-280600-
CAPE COD AND THE ISLANDS

CITY           SKY/WX    TMP DP  RH WIND       PRES   REMARKS
FALMOUTH       CLEAR     70  68  94 S6        30.03S
HYANNIS        CLEAR     73  70  90 SW8       30.02F
CHATHAM        CLEAR     69  68  96 SW6       30.04F
PROVINCETOWN   CLEAR     70  63  78 S8        30.02F
NANTUCKET      CLEAR     69  66  90 S7        30.04F
MARTHAS VNYRD  CLEAR     69  67  93 SW6       30.03F
$$

MAZALL-280600-
CENTRAL AND WESTERN MASSACHUSETTS

CITY           SKY/WX    TMP DP  RH WIND       PRES   REMARKS
WORCESTER      CLEAR     68  66  93 SW12      30.02F
FITCHBURG      CLEAR     68  65  90 CALM      30.00F
ORANGE         FOG       65  65 100 CALM      30.01F VSB 1/4
SPRINGFIELD    DRIZZLE   64  64 100 CALM      29.99F FOG
WESTFIELD      FOG       68  66  93 SE3       30.00F VSB 1
NORTH ADAMS    PTCLDY    67  65  93 CALM      30.01S
PITTSFIELD     PTCLDY    68  66  93 CALM      30.03F
$$

RIZALL-280600-
RHODE ISLAND

CITY           SKY/WX    TMP DP  RH WIND       PRES   REMARKS
PROVIDENCE     CLEAR     70  68  93 S6        30.02F
NEWPORT        CLOUDY    71  70  96 VRB5      30.03S
BLOCK ISLAND   CLOUDY    72  72 100 S8        30.04S
SMITHFIELD     CLEAR     66  66 100 CALM      30.02S
WESTERLY       CLEAR     72  71  97 SW3       30.03S
$$

CTZALL-280600-
CONNECTICUT

CITY           SKY/WX    TMP DP  RH WIND       PRES   REMARKS
BRADLEY INTL   PTCLDY    73  67  81 S7        30.00S
HARTFORD       CLEAR     72  69  90 S3        30.01R
BRIDGEPORT     CLEAR     75  70  84 SW5       30.01S
DANBURY        CLEAR     70  64  81 CALM      30.04S
GROTON         PTCLDY    71  70  96 SW5       30.02S
NEW HAVEN      CLEAR     72  69  90 CALM      30.02S
CHESTER        NOT AVBL
MERIDEN        CLEAR     70  66  87 CALM      30.02R
WILLIMANTIC    CLEAR     70  67  90 CALM      30.02S
OXFORD         CLEAR     72  63  73 SW3       30.05F
$$

MEZ002-015-021-024-NHZ003-005-008-011-012-014-VTZ005-008-280600-
NORTHERN NEW ENGLAND

CITY           SKY/WX    TMP DP  RH WIND       PRES   REMARKS
PORTLAND ME    MOCLDY    63  63 100 SE5       29.98F FOG
BANGOR ME      CLOUDY    64  63  96 S6        29.98R
CONCORD NH     PTCLDY    70  67  90 CALM      29.98F
MANCHESTER NH  PTCLDY    71  67  87 S5        29.97F
NASHUA NH      NOT AVBL
PORTSMOUTH NH  MOCLDY    67  65  91 CALM      29.97F
JAFFREY NH     CLEAR     65  63  93 CALM      30.03S
KEENE NH       CLEAR     64  61  88 CALM      30.01S
BURLINGTON VT  LGT RAIN  73  66  78 NW10      30.02R
MT. WASHINGTON FOG       54  54 100 W24         N/A  VSB 0
$$

NYZ052-076-280600-
EASTERN NEW YORK

CITY           SKY/WX    TMP DP  RH WIND       PRES   REMARKS
ALBANY         PTCLDY    74  68  81 S7        29.99S
NEW YORK CITY  MOCLDY    78  67  68 SW7       30.01S
$$

ANZALL-280600-
MARINE OBSERVATIONS

STATION/POSITION TIME  TEMP    WIND        PRES    VSBY  WAVE
                       AIR SEA DIR/SP/G                  HT/PER
                 (UTC) (F)     (DEG/KT/KT) (MB)    (MI)  (FT/S)
BOSTON BUOY      0450   70 68  190/  8/  8 1016.1F         2/ 9
BUZZARDS BAY     0400          200/ 13/ 13 1017.7S
NANTUCKET SOUND  0450   72 72  200/ 12/ 12 1016.7F         1/ 2
MASS BAY-STELLWA 0404   69 67  190/ 10/ 10   N/A    1 7/8  1/ 4
ISLE OF SHOALS   0400   72     210/ 13/ 13 1015.0F
S OF BLOCK IS    0408      70                N/A           2/11
$$

......................KEY.........................
  SKY/WX - SKY CONDITION/PRESENT WEATHER
  TMP    - TEMPERATURE IN FAHRENHEIT
  DWPT   - DEWPOINT IN FAHRENHEIT
  RH     - RELATIVE HUMIDITY IN PERCENT
  WIND   - DIRECTION AND SPEED IN MPH
  PRES   - MEAN SEA LEVEL PRESSURE IN INCHES OF HG
  WCI    - WIND CHILL INDEX
  VSB    - VISIBILITY IN MILES
  HX     - HEAT INDEX
  TC     - TEMPERATURE IN CELSIUS
  VRB    - VARIABLE WIND DIRECTION
  N/A    - NOT AVAILABLE



USA.gov is the U.S. government's official web portal to all federal, state and local government web resources and services.